Location: �terpigny
(49.8910°N, 2.9249°E)
Time: 11:07:22
(UTC+00:00)

USA 229 DEB - Pass Details

Date: 24 October 2021
Orbit: 944 x 1268 km, 63.4° (Epoch: 25 November)

Event Time Altitude Azimuth Distance (km) Brightness Sun altitude
Rises 17:25:32 0° 179° (S) 3,622 6.6 -8.1°
Reaches altitude 10° 17:28:24 10° 168° (SSE) 2,706 5.8 -8.5°
Maximum altitude 17:33:34 27° 113° (ESE) 1,816 4.5 -9.3°
Drops below altitude 10° 17:39:01 10° 58° (ENE) 2,869 5.4 -10.2°
Enters shadow 17:39:26 - 56° (NE) 2,996 5.5 -10.3°
